| time (UTC) | temp F | wind direction | speed MPH | gust MPH | rain 1hr in | rain 24hr in | rain mn in | humidity % | barometer mb |
| 20260508221824 | 68 | 256 | 3.0 | 7.0 | 0.00 | 0.00 | 0.00 | 58 | 1022.2 |
| 20260508220329 | 67 | 217 | 6.0 | 10.0 | 0.00 | 0.00 | 0.00 | 59 | 1022.4 |
| 20260508214837 | 67 | 174 | 2.0 | 8.0 | 0.00 | 0.00 | 0.00 | 61 | 1022.4 |
| 20260508213326 | 66 | 148 | 2.0 | 9.0 | 0.00 | 0.00 | 0.00 | 62 | 1022.3 |
| 20260508211837 | 66 | 190 | 6.0 | 9.0 | 0.00 | 0.00 | 0.00 | 59 | 1022.5 |
| 20260508210323 | 65 | 90 | 3.0 | 11.0 | 0.00 | 0.00 | 0.00 | 61 | 1022.4 |
| 20260508204830 | 63 | 171 | 2.0 | 8.0 | 0.00 | 0.00 | 0.00 | 64 | 1022.3 |
| 20260508203337 | 63 | 167 | 4.0 | 8.0 | 0.00 | 0.00 | 0.00 | 66 | 1022.4 |
| 20260508201823 | 62 | 178 | 1.0 | 5.0 | 0.00 | 0.00 | 0.00 | 63 | 1022.4 |
| 20260508200326 | 61 | 130 | 5.0 | 9.0 | 0.00 | 0.00 | 0.00 | 68 | 1022.5 |
| 20260508194834 | 60 | 202 | 4.0 | 12.0 | 0.00 | 0.00 | 0.00 | 68 | 1022.5 |
| 20260508193320 | 60 | 127 | 2.0 | 9.0 | 0.00 | 0.00 | 0.00 | 69 | 1022.5 |
| 20260508191845 | 58 | 224 | 1.0 | 10.0 | 0.00 | 0.00 | 0.00 | 69 | 1022.6 |
| 20260508190348 | 58 | 221 | 1.0 | 5.0 | 0.00 | 0.00 | 0.00 | 69 | 1022.7 |
| 20260508184837 | 57 | 205 | 3.0 | 8.0 | 0.00 | 0.00 | 0.00 | 72 | 1022.7 |
| 20260508183325 | 57 | 193 | 1.0 | 10.0 | 0.00 | 0.00 | 0.00 | 68 | 1022.7 |
| 20260508181851 | 56 | 135 | 3.0 | 8.0 | 0.00 | 0.00 | 0.00 | 74 | 1022.6 |
| 20260508180337 | 56 | 168 | 2.0 | 11.0 | 0.00 | 0.00 | 0.00 | 77 | 1022.5 |
| 20260508174826 | 55 | 175 | 3.0 | 9.0 | 0.00 | 0.00 | 0.00 | 78 | 1022.5 |
| 20260508173338 | 55 | 119 | 5.0 | 10.0 | 0.00 | 0.00 | 0.00 | 77 | 1022.4 |
| 20260508171823 | 54 | 142 | 2.0 | 9.0 | 0.00 | 0.00 | 0.00 | 80 | 1022.3 |
| 20260508170348 | 53 | 159 | 3.0 | 9.0 | 0.00 | 0.00 | 0.00 | 80 | 1022.2 |
| 20260508164828 | 52 | 206 | 4.0 | 10.0 | 0.00 | 0.00 | 0.00 | 81 | 1022.2 |
| 20260508163336 | 52 | 135 | 3.0 | 9.0 | 0.00 | 0.00 | 0.00 | 82 | 1021.9 |
| 20260508161821 | 52 | 133 | 5.0 | 9.0 | 0.00 | 0.00 | 0.00 | 84 | 1021.7 |
| 20260508160334 | 51 | 123 | 5.0 | 10.0 | 0.00 | 0.00 | 0.00 | 83 | 1021.7 |
| 20260508154835 | 51 | 138 | 4.0 | 7.0 | 0.00 | 0.00 | 0.00 | 85 | 1021.6 |
| 20260508153345 | 50 | 129 | 3.0 | 7.0 | 0.00 | 0.00 | 0.00 | 84 | 1021.9 |
| 20260508151828 | 49 | 108 | 5.0 | 10.0 | 0.00 | 0.00 | 0.00 | 86 | 1021.6 |
| 20260508150337 | 48 | 129 | 3.0 | 6.0 | 0.00 | 0.00 | 0.00 | 87 | 1021.4 |
| 20260508144845 | 48 | 102 | 3.0 | 5.0 | 0.00 | 0.00 | 0.00 | 87 | 1021.4 |
| 20260508143353 | 48 | 118 | 2.0 | 4.0 | 0.00 | 0.00 | 0.00 | 88 | 1021.4 |
| 20260508141900 | 47 | 134 | 1.0 | 3.0 | 0.00 | 0.00 | 0.00 | 90 | 1021.4 |
| 20260508140329 | 46 | 156 | 2.0 | 3.0 | 0.00 | 0.00 | 0.00 | 91 | 1021.4 |
| 20260508134827 | 45 | 189 | 1.0 | 3.0 | 0.00 | 0.00 | 0.00 | 90 | 1021.4 |
| 20260508133356 | 45 | 189 | 2.0 | 4.0 | 0.00 | 0.00 | 0.00 | 90 | 1021.0 |
| 20260508131844 | 45 | 184 | 1.0 | 4.0 | 0.00 | 0.00 | 0.00 | 89 | 1020.7 |
| 20260508130327 | 46 | 183 | 0.0 | 2.0 | 0.00 | 0.00 | 0.00 | 88 | 1020.5 |
| 20260508124901 | 46 | 183 | 2.0 | 3.0 | 0.00 | 0.00 | 0.00 | 87 | 1020.5 |
| 20260508123345 | 47 | 186 | 1.0 | 4.0 | 0.00 | 0.00 | 0.00 | 86 | 1020.1 |
| 20260508121831 | 47 | 233 | 3.0 | 10.0 | 0.00 | 0.00 | 0.00 | 86 | 1019.8 |
| 20260508120321 | 47 | 212 | 4.0 | 8.0 | 0.00 | 0.00 | 0.00 | 86 | 1019.5 |
| 20260508114834 | 47 | 202 | 4.0 | 7.0 | 0.00 | 0.00 | 0.00 | 87 | 1019.5 |
| 20260508113324 | 47 | 213 | 3.0 | 8.0 | 0.00 | 0.00 | 0.00 | 86 | 1019.6 |
| 20260508111850 | 47 | 185 | 3.0 | 9.0 | 0.00 | 0.00 | 0.00 | 85 | 1019.4 |
| 20260508110354 | 47 | 226 | 3.0 | 5.0 | 0.00 | 0.00 | 0.00 | 84 | 1019.2 |
| 20260508104858 | 48 | 225 | 4.0 | 7.0 | 0.00 | 0.00 | 0.00 | 83 | 1018.9 |
| 20260508103343 | 48 | 213 | 3.0 | 4.0 | 0.00 | 0.00 | 0.00 | 82 | 1018.8 |
| 20260508101826 | 49 | 214 | 4.0 | 7.0 | 0.00 | 0.00 | 0.00 | 82 | 1018.6 |
| 20260508100355 | 49 | 221 | 3.0 | 7.0 | 0.00 | 0.00 | 0.00 | 81 | 1018.7 |
| 20260508094837 | 49 | 217 | 3.0 | 10.0 | 0.00 | 0.00 | 0.00 | 80 | 1018.5 |
| 20260508093322 | 49 | 180 | 5.0 | 9.0 | 0.00 | 0.00 | 0.00 | 80 | 1018.1 |
| 20260508091850 | 50 | 192 | 3.0 | 6.0 | 0.00 | 0.00 | 0.00 | 78 | 1018.1 |
| 20260508090338 | 51 | 196 | 1.0 | 4.0 | 0.00 | 0.00 | 0.00 | 77 | 1018.0 |
| 20260508084825 | 51 | 225 | 0.0 | 3.0 | 0.00 | 0.00 | 0.00 | 78 | 1018.0 |
| 20260508083334 | 51 | 233 | 3.0 | 8.0 | 0.00 | 0.00 | 0.00 | 78 | 1018.0 |
| 20260508081821 | 52 | 229 | 4.0 | 7.0 | 0.00 | 0.00 | 0.00 | 75 | 1017.7 |
| 20260508080328 | 52 | 206 | 4.0 | 7.0 | 0.00 | 0.00 | 0.00 | 73 | 1017.7 |
| 20260508074824 | 52 | 206 | 4.0 | 7.0 | 0.00 | 0.00 | 0.00 | 68 | 1017.8 |
| 20260508073349 | 53 | 230 | 1.0 | 5.0 | 0.00 | 0.00 | 0.00 | 64 | 1017.7 |
| 20260508071854 | 53 | 223 | 2.0 | 4.0 | 0.00 | 0.00 | 0.00 | 67 | 1017.5 |
| 20260508070322 | 53 | 237 | 2.0 | 7.0 | 0.00 | 0.00 | 0.00 | 68 | 1017.5 |
| 20260508064828 | 54 | 222 | 6.0 | 9.0 | 0.00 | 0.00 | 0.00 | 72 | 1017.4 |
| 20260508063337 | 54 | 211 | 4.0 | 6.0 | 0.00 | 0.00 | 0.00 | 74 | 1017.4 |
| 20260508061826 | 55 | 222 | 5.0 | 7.0 | 0.00 | 0.00 | 0.00 | 72 | 1017.4 |
| 20260508060335 | 55 | 226 | 5.0 | 9.0 | 0.00 | 0.00 | 0.00 | 71 | 1017.4 |
| 20260508054826 | 55 | 199 | 5.0 | 9.0 | 0.00 | 0.00 | 0.00 | 71 | 1017.5 |
| 20260508053336 | 56 | 222 | 7.0 | 10.0 | 0.00 | 0.00 | 0.00 | 70 | 1017.3 |
| 20260508051826 | 56 | 231 | 7.0 | 9.0 | 0.00 | 0.00 | 0.00 | 69 | 1017.4 |
| 20260508050350 | 57 | 213 | 4.0 | 9.0 | 0.00 | 0.00 | 0.00 | 68 | 1017.4 |
| 20260508044838 | 57 | 230 | 5.0 | 11.0 | 0.00 | 0.00 | 0.00 | 67 | 1017.2 |
| 20260508043326 | 58 | 213 | 8.0 | 14.0 | 0.00 | 0.00 | 0.00 | 66 | 1017.2 |
| 20260508041852 | 58 | 229 | 8.0 | 12.0 | 0.00 | 0.00 | 0.00 | 64 | 1017.1 |
| 20260508040319 | 59 | 243 | 5.0 | 10.0 | 0.00 | 0.00 | 0.00 | 62 | 1016.9 |
| 20260508034829 | 60 | 235 | 6.0 | 10.0 | 0.00 | 0.00 | 0.00 | 62 | 1016.9 |
| 20260508033318 | 61 | 233 | 6.0 | 11.0 | 0.00 | 0.00 | 0.00 | 62 | 1016.7 |
| 20260508031827 | 62 | 231 | 5.0 | 11.0 | 0.00 | 0.00 | 0.00 | 63 | 1016.5 |
| 20260508030332 | 63 | 246 | 5.0 | 10.0 | 0.00 | 0.00 | 0.00 | 63 | 1016.5 |
| 20260508024821 | 65 | 247 | 5.0 | 9.0 | 0.00 | 0.00 | 0.00 | 61 | 1016.5 |
| 20260508023326 | 68 | 240 | 4.0 | 9.0 | 0.00 | 0.00 | 0.00 | 59 | 1016.6 |
| 20260508021833 | 70 | 260 | 2.0 | 3.0 | 0.00 | 0.00 | 0.00 | 59 | 1016.6 |
| 20260508020323 | 71 | 260 | 2.0 | 3.0 | 0.00 | 0.00 | 0.00 | 54 | 1016.5 |
| 20260508014828 | 72 | 233 | 1.0 | 4.0 | 0.00 | 0.00 | 0.00 | 52 | 1016.4 |
| 20260508013335 | 71 | 229 | 3.0 | 4.0 | 0.00 | 0.00 | 0.00 | 54 | 1016.6 |
| 20260508011823 | 70 | 339 | 1.0 | 3.0 | 0.00 | 0.00 | 0.00 | 53 | 1016.9 |
| 20260508010334 | 71 | 329 | 2.0 | 6.0 | 0.00 | 0.00 | 0.00 | 52 | 1016.9 |
| 20260508004822 | 72 | 7 | 2.0 | 7.0 | 0.00 | 0.00 | 0.00 | 50 | 1017.0 |
| 20260508003326 | 73 | 325 | 2.0 | 5.0 | 0.00 | 0.00 | 0.00 | 49 | 1017.1 |
| 20260508001859 | 72 | 331 | 1.0 | 2.0 | 0.00 | 0.00 | 0.00 | 51 | 1017.2 |
| 20260508000323 | 71 | 342 | 2.0 | 8.0 | 0.00 | 0.00 | 0.00 | 51 | 1017.3 |
| 20260507234847 | 72 | 310 | 2.0 | 5.0 | 0.00 | 0.00 | 0.00 | 49 | 1017.3 |
| 20260507233335 | 71 | 358 | 2.0 | 8.0 | 0.00 | 0.00 | 0.00 | 53 | 1017.5 |
| 20260507231842 | 72 | 3 | 1.0 | 8.0 | 0.00 | 0.00 | 0.00 | 50 | 1017.7 |
| 20260507230324 | 73 | 335 | 2.0 | 6.0 | 0.00 | 0.00 | 0.00 | 51 | 1017.9 |
| 20260507224852 | 71 | 301 | 2.0 | 4.0 | 0.00 | 0.00 | 0.00 | 53 | 1018.1 |
| 20260507223359 | 71 | 28 | 2.0 | 4.0 | 0.00 | 0.00 | 0.00 | 51 | 1018.3 |